Time,TemperatureF,DewpointF,PressureIn,WindDirection,WindDirectionDegrees,WindSpeedMPH,WindSpeedGustMPH,Humidity,HourlyPrecipIn,Conditions,Clouds,dailyrainin,SoftwareType,DateUTC
2013-01-29 00:02:00,33.5,31.4,29.95,SW,223,2.0,0.0,92,0.00,,OVC003,0.33,VWS V14.01,2013-01-29 05:02:00,
2013-01-29 00:03:00,33.4,31.3,29.95,SW,223,2.0,0.0,92,0.00,,OVC003,0.33,VWS V14.01,2013-01-29 05:03:00,
2013-01-29 00:04:00,33.5,31.4,29.95,SW,222,2.0,0.0,92,0.00,,OVC003,0.33,VWS V14.01,2013-01-29 05:04:00,
2013-01-29 00:09:00,33.5,31.4,29.95,SW,222,2.0,0.0,92,0.00,,OVC003,0.00,VWS V14.01,2013-01-29 05:09:00,
2013-01-29 00:14:00,33.5,31.4,29.95,SW,223,2.0,0.0,92,0.00,,OVC003,0.00,VWS V14.01,2013-01-29 05:14:00,
2013-01-29 00:19:00,33.5,31.4,29.94,SW,222,2.0,0.0,92,0.00,,OVC003,0.00,VWS V14.01,2013-01-29 05:19:00,
2013-01-29 00:24:00,33.5,31.4,29.94,SW,222,2.0,0.0,92,0.00,,OVC003,0.00,VWS V14.01,2013-01-29 05:24:00,
2013-01-29 00:29:00,33.5,31.4,29.94,SW,223,2.0,0.0,92,0.00,,OVC003,0.00,VWS V14.01,2013-01-29 05:29:00,
2013-01-29 00:34:00,33.5,31.4,29.94,SW,223,2.0,0.0,92,0.00,,OVC003,0.00,VWS V14.01,2013-01-29 05:34:00,
2013-01-29 00:39:00,33.5,31.4,29.94,SW,222,2.0,0.0,92,0.00,,OVC003,0.00,VWS V14.01,2013-01-29 05:39:00,
2013-01-29 00:44:00,33.4,31.3,29.94,SW,223,2.0,0.0,92,0.00,,OVC003,0.00,VWS V14.01,2013-01-29 05:44:00,
2013-01-29 00:49:00,33.5,31.4,29.92,SW,222,2.0,2.0,92,0.00,,OVC003,0.00,VWS V14.01,2013-01-29 05:49:00,
2013-01-29 00:54:00,33.4,31.3,29.92,SW,223,2.0,0.0,92,0.00,,OVC003,0.00,VWS V14.01,2013-01-29 05:54:00,
2013-01-29 00:59:00,33.4,31.3,29.92,SW,222,2.0,0.0,92,0.00,,OVC003,0.00,VWS V14.01,2013-01-29 05:59:00,
2013-01-29 01:04:00,33.4,31.6,29.92,SW,222,2.0,0.0,93,0.00,,OVC003,0.00,VWS V14.01,2013-01-29 06:04:00,
2013-01-29 01:09:00,33.4,31.6,29.92,SW,223,2.0,0.0,93,0.00,,OVC003,0.00,VWS V14.01,2013-01-29 06:09:00,
2013-01-29 01:14:00,33.4,31.6,29.92,SW,223,2.0,0.0,93,0.00,,OVC003,0.00,VWS V14.01,2013-01-29 06:14:00,
2013-01-29 01:19:00,33.4,31.6,29.91,SW,222,2.0,0.0,93,0.00,,OVC003,0.00,VWS V14.01,2013-01-29 06:19:00,
2013-01-29 01:24:00,33.4,31.6,29.91,SW,223,2.0,0.0,93,0.00,,OVC003,0.00,VWS V14.01,2013-01-29 06:24:00,
2013-01-29 01:29:00,33.4,31.6,29.91,SW,223,2.0,0.0,93,0.00,,OVC003,0.00,VWS V14.01,2013-01-29 06:29:00,
2013-01-29 01:34:00,33.4,31.6,29.91,SW,223,2.0,0.0,93,0.00,,OVC003,0.00,VWS V14.01,2013-01-29 06:34:00,
2013-01-29 01:39:00,33.4,31.6,29.91,SW,223,2.0,0.0,93,0.00,,OVC003,0.00,VWS V14.01,2013-01-29 06:39:00,
2013-01-29 01:44:00,33.3,31.5,29.91,SW,223,2.0,0.0,93,0.00,,OVC003,0.00,VWS V14.01,2013-01-29 06:44:00,
2013-01-29 01:49:00,33.3,31.5,29.91,SW,222,2.0,0.0,93,0.00,,OVC003,0.00,VWS V14.01,2013-01-29 06:49:00,
2013-01-29 01:54:00,33.4,31.6,29.91,SW,223,2.0,0.0,93,0.00,,OVC003,0.00,VWS V14.01,2013-01-29 06:54:00,
2013-01-29 01:59:00,33.4,31.6,29.91,SW,223,2.0,0.0,93,0.00,,OVC003,0.00,VWS V14.01,2013-01-29 06:59:00,
2013-01-29 02:04:00,33.4,31.6,29.89,SW,223,2.0,0.0,93,0.00,,OVC003,0.00,VWS V14.01,2013-01-29 07:04:00,
2013-01-29 02:09:00,33.5,31.7,29.89,SW,222,2.0,0.0,93,0.00,,OVC003,0.00,VWS V14.01,2013-01-29 07:09:00,
2013-01-29 02:14:00,33.6,31.8,29.89,SW,223,2.0,0.0,93,0.00,,OVC003,0.00,VWS V14.01,2013-01-29 07:14:00,
2013-01-29 02:19:00,33.7,31.9,29.88,SW,222,2.0,0.0,93,0.00,,OVC003,0.00,VWS V14.01,2013-01-29 07:19:00,
2013-01-29 02:24:00,33.7,31.9,29.88,SW,222,2.0,0.0,93,0.00,,OVC003,0.00,VWS V14.01,2013-01-29 07:24:00,
2013-01-29 02:29:00,33.7,31.9,29.88,SW,222,2.0,0.0,93,0.00,,OVC003,0.00,VWS V14.01,2013-01-29 07:29:00,
2013-01-29 02:34:00,33.7,31.9,29.89,SW,223,2.0,0.0,93,0.00,,OVC003,0.00,VWS V14.01,2013-01-29 07:34:00,
2013-01-29 02:39:00,33.8,32.0,29.89,SW,223,2.0,0.0,93,0.00,,OVC003,0.00,VWS V14.01,2013-01-29 07:39:00,
2013-01-29 02:44:00,33.9,32.1,29.89,SW,222,2.0,0.0,93,0.00,,OVC003,0.00,VWS V14.01,2013-01-29 07:44:00,
2013-01-29 02:49:00,33.9,32.1,29.89,SW,223,2.0,0.0,93,0.00,,OVC003,0.00,VWS V14.01,2013-01-29 07:49:00,
2013-01-29 02:55:00,33.8,32.0,29.89,SW,223,2.0,2.0,93,0.00,,OVC003,0.00,VWS V14.01,2013-01-29 07:55:00,
2013-01-29 03:00:00,33.9,32.1,29.89,SW,223,2.0,2.0,93,0.00,,OVC003,0.00,VWS V14.01,2013-01-29 08:00:00,
2013-01-29 03:05:00,34.0,32.2,29.90,SW,222,2.0,2.0,93,0.00,,OVC003,0.00,VWS V14.01,2013-01-29 08:05:00,
2013-01-29 03:10:00,34.0,32.2,29.90,SW,218,2.0,0.0,93,0.00,,OVC003,0.00,VWS V14.01,2013-01-29 08:10:00,
2013-01-29 03:15:00,34.1,32.3,29.90,SW,219,2.0,0.0,93,0.00,,OVC003,0.00,VWS V14.01,2013-01-29 08:15:00,
2013-01-29 03:20:00,34.1,32.3,29.88,SW,219,2.0,0.0,93,0.00,,OVC003,0.00,VWS V14.01,2013-01-29 08:20:00,
2013-01-29 03:25:00,34.1,32.3,29.88,SW,219,2.0,0.0,93,0.00,,OVC003,0.00,VWS V14.01,2013-01-29 08:25:00,
2013-01-29 03:30:00,34.1,32.3,29.88,SW,219,2.0,0.0,93,0.00,,OVC003,0.00,VWS V14.01,2013-01-29 08:30:00,
2013-01-29 03:35:00,34.1,32.3,29.88,SW,219,2.0,0.0,93,0.00,,OVC003,0.00,VWS V14.01,2013-01-29 08:35:00,
2013-01-29 03:40:00,34.0,32.2,29.88,SW,219,2.0,2.0,93,0.00,,OVC003,0.00,VWS V14.01,2013-01-29 08:40:00,
2013-01-29 03:45:00,34.1,32.3,29.88,SW,219,2.0,0.0,93,0.00,,OVC003,0.00,VWS V14.01,2013-01-29 08:45:00,
2013-01-29 03:50:00,34.1,32.3,29.85,SW,218,2.0,0.0,93,0.00,,OVC003,0.00,VWS V14.01,2013-01-29 08:50:00,
2013-01-29 03:55:00,34.1,32.3,29.85,SW,219,2.0,0.0,93,0.00,,OVC003,0.00,VWS V14.01,2013-01-29 08:55:00,
2013-01-29 04:00:00,34.2,32.4,29.85,SW,218,2.0,2.0,93,0.00,,OVC003,0.00,VWS V14.01,2013-01-29 09:00:00,
2013-01-29 04:05:00,34.2,32.4,29.84,SW,218,2.0,2.0,93,0.00,,OVC003,0.00,VWS V14.01,2013-01-29 09:05:00,
2013-01-29 04:10:00,34.2,32.4,29.84,SW,219,2.0,0.0,93,0.00,,OVC003,0.00,VWS V14.01,2013-01-29 09:10:00,
2013-01-29 04:15:00,34.2,32.4,29.84,SW,218,2.0,0.0,93,0.00,,OVC003,0.00,VWS V14.01,2013-01-29 09:15:00,
2013-01-29 04:20:00,34.2,32.1,29.84,SW,219,2.0,0.0,92,0.00,,OVC003,0.00,VWS V14.01,2013-01-29 09:20:00,
2013-01-29 04:25:00,34.1,32.0,29.84,SW,219,2.0,0.0,92,0.00,,OVC003,0.00,VWS V14.01,2013-01-29 09:25:00,
2013-01-29 04:30:00,34.1,32.0,29.84,SW,218,2.0,0.0,92,0.00,,OVC003,0.00,VWS V14.01,2013-01-29 09:30:00,
2013-01-29 04:35:00,34.0,31.9,29.83,SW,218,2.0,0.0,92,0.00,,OVC003,0.00,VWS V14.01,2013-01-29 09:35:00,
2013-01-29 04:40:00,34.1,32.0,29.83,SSE,147,2.0,0.0,92,0.00,,OVC003,0.00,VWS V14.01,2013-01-29 09:40:00,
2013-01-29 04:45:00,34.1,32.0,29.83,SSE,147,3.0,3.0,92,0.00,,OVC003,0.00,VWS V14.01,2013-01-29 09:45:00,
2013-01-29 04:50:00,34.1,32.0,29.82,SE,144,2.0,2.0,92,0.00,,OVC003,0.00,VWS V14.01,2013-01-29 09:50:00,
2013-01-29 04:55:00,34.2,32.1,29.82,SE,139,2.0,0.0,92,0.00,,OVC003,0.00,VWS V14.01,2013-01-29 09:55:00,
2013-01-29 05:00:00,34.2,32.1,29.82,SE,139,3.0,3.0,92,0.00,,OVC003,0.00,VWS V14.01,2013-01-29 10:00:00,
2013-01-29 05:05:00,34.1,32.0,29.81,SE,139,2.0,0.0,92,0.01,,OVC003,0.01,VWS V14.01,2013-01-29 10:05:00,
2013-01-29 05:10:00,34.2,32.1,29.81,NE,42,3.0,3.0,92,0.03,,OVC003,0.03,VWS V14.01,2013-01-29 10:10:00,
2013-01-29 05:15:00,34.2,32.1,29.81,NE,42,2.0,2.0,92,0.03,,OVC003,0.03,VWS V14.01,2013-01-29 10:15:00,
2013-01-29 05:20:00,34.2,32.1,29.81,NE,43,2.0,2.0,92,0.04,,OVC003,0.04,VWS V14.01,2013-01-29 10:20:00,
2013-01-29 05:25:00,34.2,32.1,29.81,NE,43,2.0,2.0,92,0.07,,OVC003,0.07,VWS V14.01,2013-01-29 10:25:00,
2013-01-29 05:30:00,34.2,32.1,29.81,East,95,3.0,3.0,92,0.09,,OVC003,0.09,VWS V14.01,2013-01-29 10:30:00,
2013-01-29 05:35:00,34.2,32.1,29.79,East,95,3.0,3.0,92,0.10,,OVC003,0.10,VWS V14.01,2013-01-29 10:35:00,
2013-01-29 05:40:00,34.2,32.4,29.79,East,95,2.0,2.0,93,0.12,,OVC003,0.12,VWS V14.01,2013-01-29 10:40:00,
2013-01-29 05:45:00,34.1,32.3,29.79,East,95,3.0,3.0,93,0.15,,OVC003,0.15,VWS V14.01,2013-01-29 10:45:00,
2013-01-29 05:50:00,34.1,32.3,29.76,ESE,114,2.0,2.0,93,0.18,,OVC003,0.18,VWS V14.01,2013-01-29 10:50:00,
2013-01-29 05:55:00,34.2,32.4,29.76,ESE,113,3.0,3.0,93,0.20,,OVC003,0.20,VWS V14.01,2013-01-29 10:55:00,
2013-01-29 06:00:00,34.2,32.4,29.76,ESE,114,2.0,0.0,93,0.21,,OVC003,0.21,VWS V14.01,2013-01-29 11:00:00,
2013-01-29 06:05:00,34.2,32.4,29.77,ESE,114,2.0,2.0,93,0.21,,OVC003,0.22,VWS V14.01,2013-01-29 11:05:00,
2013-01-29 06:11:00,34.3,32.5,29.77,ESE,113,2.0,2.0,93,0.21,,OVC003,0.23,VWS V14.01,2013-01-29 11:11:00,
2013-01-29 06:16:00,34.3,32.5,29.77,ESE,113,2.0,0.0,93,0.22,,OVC003,0.25,VWS V14.01,2013-01-29 11:16:00,
2013-01-29 06:21:00,34.3,32.5,29.80,ESE,114,2.0,0.0,93,0.22,,OVC003,0.26,VWS V14.01,2013-01-29 11:21:00,
2013-01-29 06:26:00,34.2,32.4,29.80,ESE,113,2.0,0.0,93,0.22,,OVC003,0.28,VWS V14.01,2013-01-29 11:26:00,
2013-01-29 06:31:00,34.2,32.4,29.80,ESE,114,2.0,0.0,93,0.22,,OVC003,0.30,VWS V14.01,2013-01-29 11:31:00,
2013-01-29 06:36:00,34.2,32.4,29.77,ESE,113,2.0,0.0,93,0.23,,OVC003,0.33,VWS V14.01,2013-01-29 11:36:00,
2013-01-29 06:41:00,34.1,32.3,29.77,ESE,113,2.0,2.0,93,0.24,,OVC003,0.36,VWS V14.01,2013-01-29 11:41:00,
2013-01-29 06:46:00,34.1,32.3,29.77,ESE,114,2.0,2.0,93,0.24,,OVC003,0.38,VWS V14.01,2013-01-29 11:46:00,
2013-01-29 06:51:00,34.1,32.3,29.75,ESE,113,2.0,2.0,93,0.23,,OVC003,0.40,VWS V14.01,2013-01-29 11:51:00,
2013-01-29 06:56:00,34.2,32.4,29.75,ESE,114,2.0,2.0,93,0.22,,OVC003,0.41,VWS V14.01,2013-01-29 11:56:00,
2013-01-29 07:01:00,34.3,32.5,29.75,ESE,114,2.0,0.0,93,0.21,,OVC003,0.41,VWS V14.01,2013-01-29 12:01:00,
2013-01-29 07:06:00,34.4,32.6,29.74,ESE,113,2.0,2.0,93,0.19,,OVC003,0.41,VWS V14.01,2013-01-29 12:06:00,
2013-01-29 07:11:00,34.4,32.6,29.74,ESE,114,2.0,2.0,93,0.19,,OVC003,0.42,VWS V14.01,2013-01-29 12:11:00,
2013-01-29 07:16:00,34.4,32.6,29.74,ESE,113,3.0,3.0,93,0.17,,OVC003,0.42,VWS V14.01,2013-01-29 12:16:00,
2013-01-29 07:21:00,34.4,32.6,29.74,ESE,114,2.0,0.0,93,0.17,,OVC003,0.43,VWS V14.01,2013-01-29 12:21:00,
2013-01-29 07:26:00,34.4,32.9,29.74,ESE,114,2.0,2.0,94,0.16,,OVC003,0.44,VWS V14.01,2013-01-29 12:26:00,
2013-01-29 07:31:00,34.4,32.9,29.74,ESE,113,2.0,2.0,94,0.16,,OVC003,0.45,VWS V14.01,2013-01-29 12:31:00,
2013-01-29 07:36:00,34.4,32.9,29.74,ESE,110,2.0,2.0,94,0.14,,OVC003,0.46,VWS V14.01,2013-01-29 12:36:00,
2013-01-29 07:41:00,34.4,32.9,29.74,ESE,111,2.0,0.0,94,0.11,,OVC003,0.46,VWS V14.01,2013-01-29 12:41:00,
2013-01-29 07:46:00,34.4,32.9,29.74,ESE,111,2.0,2.0,94,0.11,,OVC003,0.48,VWS V14.01,2013-01-29 12:46:00,
2013-01-29 07:51:00,34.4,32.9,29.73,ESE,112,2.0,2.0,94,0.10,,OVC003,0.49,VWS V14.01,2013-01-29 12:51:00,
2013-01-29 07:56:00,34.4,32.9,29.73,ESE,112,2.0,0.0,94,0.10,,OVC003,0.50,VWS V14.01,2013-01-29 12:56:00,
2013-01-29 08:01:00,34.6,33.0,29.73,ESE,112,2.0,0.0,94,0.09,,OVC003,0.50,VWS V14.01,2013-01-29 13:01:00,
2013-01-29 08:06:00,34.6,33.0,29.72,ESE,112,2.0,2.0,94,0.09,,OVC003,0.50,VWS V14.01,2013-01-29 13:06:00,
2013-01-29 08:11:00,34.7,33.2,29.72,ESE,112,2.0,0.0,94,0.08,,OVC003,0.50,VWS V14.01,2013-01-29 13:11:00,
2013-01-29 08:16:00,34.7,33.2,29.72,ESE,112,2.0,2.0,94,0.08,,OVC003,0.50,VWS V14.01,2013-01-29 13:16:00,
2013-01-29 08:21:00,34.8,33.2,29.72,ESE,112,2.0,0.0,94,0.08,,OVC003,0.51,VWS V14.01,2013-01-29 13:21:00,
2013-01-29 08:26:00,34.8,33.2,29.72,ESE,112,2.0,0.0,94,0.08,,OVC003,0.51,VWS V14.01,2013-01-29 13:26:00,
2013-01-29 08:31:00,34.8,33.2,29.72,ESE,112,2.0,0.0,94,0.07,,OVC003,0.51,VWS V14.01,2013-01-29 13:31:00,
2013-01-29 08:36:00,34.9,33.3,29.72,ESE,112,2.0,2.0,94,0.06,,OVC003,0.51,VWS V14.01,2013-01-29 13:36:00,
2013-01-29 08:41:00,34.9,33.3,29.72,ESE,112,2.0,0.0,94,0.05,,OVC003,0.51,VWS V14.01,2013-01-29 13:41:00,
2013-01-29 08:46:00,34.9,33.3,29.72,ESE,112,2.0,0.0,94,0.04,,OVC003,0.51,VWS V14.01,2013-01-29 13:46:00,
2013-01-29 08:51:00,34.9,33.3,29.71,ESE,112,2.0,0.0,94,0.03,,OVC003,0.52,VWS V14.01,2013-01-29 13:51:00,
2013-01-29 08:56:00,35.0,33.5,29.71,ESE,112,2.0,0.0,94,0.03,,OVC003,0.52,VWS V14.01,2013-01-29 13:56:00,
2013-01-29 09:01:00,35.1,33.5,29.71,ESE,112,2.0,0.0,94,0.02,,OVC003,0.52,VWS V14.01,2013-01-29 14:01:00,
2013-01-29 09:07:00,35.2,33.7,29.70,ESE,112,2.0,0.0,94,0.03,,OVC003,0.53,VWS V14.01,2013-01-29 14:07:00,
2013-01-29 09:12:00,35.4,33.8,29.70,ESE,112,2.0,0.0,94,0.03,,OVC003,0.53,VWS V14.01,2013-01-29 14:12:00,
2013-01-29 09:17:00,35.5,34.0,29.70,ESE,112,2.0,0.0,94,0.03,,OVC003,0.53,VWS V14.01,2013-01-29 14:17:00,
2013-01-29 09:22:00,35.5,34.0,29.69,ESE,112,2.0,0.0,94,0.02,,OVC003,0.53,VWS V14.01,2013-01-29 14:22:00,
2013-01-29 09:27:00,35.8,34.2,29.69,ESE,112,2.0,0.0,94,0.02,,OVC003,0.53,VWS V14.01,2013-01-29 14:27:00,
2013-01-29 09:32:00,35.9,34.3,29.69,ESE,112,2.0,0.0,94,0.02,,OVC003,0.53,VWS V14.01,2013-01-29 14:32:00,
2013-01-29 09:37:00,36.1,34.5,29.69,ESE,112,2.0,0.0,94,0.02,,OVC003,0.53,VWS V14.01,2013-01-29 14:37:00,
2013-01-29 09:42:00,36.4,34.8,29.69,ESE,112,2.0,0.0,94,0.02,,OVC003,0.53,VWS V14.01,2013-01-29 14:42:00,
2013-01-29 09:47:00,36.6,35.3,29.69,ESE,112,2.0,0.0,95,0.02,,OVC003,0.53,VWS V14.01,2013-01-29 14:47:00,
2013-01-29 09:52:00,36.8,35.2,29.67,ESE,112,2.0,0.0,94,0.02,,OVC003,0.53,VWS V14.01,2013-01-29 14:52:00,
2013-01-29 09:57:00,36.9,35.3,29.67,ESE,112,2.0,0.0,94,0.02,,OVC003,0.54,VWS V14.01,2013-01-29 14:57:00,
2013-01-29 10:02:00,37.0,35.4,29.67,ESE,112,3.0,3.0,94,0.02,,OVC003,0.54,VWS V14.01,2013-01-29 15:02:00,
2013-01-29 10:07:00,37.2,35.9,29.67,ESE,112,2.0,0.0,95,0.02,,OVC003,0.54,VWS V14.01,2013-01-29 15:07:00,
2013-01-29 10:12:00,37.3,36.0,29.67,ESE,112,2.0,2.0,95,0.01,,OVC003,0.54,VWS V14.01,2013-01-29 15:12:00,
2013-01-29 10:17:00,37.4,35.8,29.67,ESE,112,2.0,0.0,94,0.01,,OVC003,0.54,VWS V14.01,2013-01-29 15:17:00,
2013-01-29 10:22:00,37.5,36.2,29.67,ESE,112,2.0,0.0,95,0.01,,OVC003,0.54,VWS V14.01,2013-01-29 15:22:00,
2013-01-29 10:27:00,37.7,36.4,29.67,ESE,112,2.0,0.0,95,0.01,,OVC003,0.54,VWS V14.01,2013-01-29 15:27:00,
2013-01-29 10:32:00,37.9,36.6,29.67,ESE,112,2.0,0.0,95,0.01,,OVC003,0.54,VWS V14.01,2013-01-29 15:32:00,
2013-01-29 10:37:00,38.0,36.7,29.66,SSE,157,2.0,3.0,95,0.01,,OVC003,0.54,VWS V14.01,2013-01-29 15:37:00,
2013-01-29 10:42:00,38.4,37.1,29.66,SSE,157,2.0,0.0,95,0.01,,OVC003,0.54,VWS V14.01,2013-01-29 15:42:00,
2013-01-29 10:47:00,38.7,37.4,29.66,SSE,157,2.0,2.0,95,0.01,,OVC003,0.54,VWS V14.01,2013-01-29 15:47:00,
2013-01-29 10:52:00,39.1,37.8,29.66,SSE,157,2.0,2.0,95,0.02,,OVC003,0.55,VWS V14.01,2013-01-29 15:52:00,
2013-01-29 10:57:00,39.3,38.0,29.66,SSE,157,2.0,2.0,95,0.01,,OVC003,0.55,VWS V14.01,2013-01-29 15:57:00,
2013-01-29 11:02:00,39.6,38.3,29.66,SSE,157,2.0,2.0,95,0.01,,OVC003,0.55,VWS V14.01,2013-01-29 16:02:00,
2013-01-29 11:07:00,39.7,38.4,29.66,SSE,157,2.0,0.0,95,0.01,,OVC003,0.55,VWS V14.01,2013-01-29 16:07:00,
2013-01-29 11:12:00,39.7,38.4,29.66,SSE,157,2.0,0.0,95,0.01,,OVC003,0.55,VWS V14.01,2013-01-29 16:12:00,
2013-01-29 11:17:00,40.0,38.7,29.66,SSE,157,3.0,3.0,95,0.01,,OVC003,0.55,VWS V14.01,2013-01-29 16:17:00,
2013-01-29 11:22:00,40.3,39.0,29.66,SSE,157,2.0,2.0,95,0.02,,OVC003,0.56,VWS V14.01,2013-01-29 16:22:00,
2013-01-29 11:27:00,40.1,38.8,29.66,SSE,157,2.0,0.0,95,0.02,,OVC003,0.56,VWS V14.01,2013-01-29 16:27:00,
2013-01-29 11:32:00,39.9,38.6,29.66,SSE,157,2.0,2.0,95,0.03,,OVC003,0.57,VWS V14.01,2013-01-29 16:32:00,
2013-01-29 11:37:00,39.8,38.5,29.65,SSE,157,2.0,2.0,95,0.03,,OVC003,0.57,VWS V14.01,2013-01-29 16:37:00,
2013-01-29 11:42:00,40.1,38.8,29.65,SSE,157,2.0,2.0,95,0.03,,OVC003,0.57,VWS V14.01,2013-01-29 16:42:00,
2013-01-29 11:47:00,40.2,38.9,29.65,SSE,157,2.0,0.0,95,0.03,,OVC003,0.57,VWS V14.01,2013-01-29 16:47:00,
2013-01-29 11:52:00,40.4,39.1,29.64,SSE,157,2.0,0.0,95,0.03,,OVC003,0.57,VWS V14.01,2013-01-29 16:52:00,
2013-01-29 11:57:00,40.6,39.3,29.64,SSE,157,2.0,0.0,95,0.02,,OVC003,0.57,VWS V14.01,2013-01-29 16:57:00,
2013-01-29 12:02:00,40.9,39.6,29.64,SSE,157,2.0,0.0,95,0.02,,OVC003,0.57,VWS V14.01,2013-01-29 17:02:00,
2013-01-29 12:07:00,41.1,39.8,29.64,SSE,157,2.0,0.0,95,0.02,,OVC003,0.57,VWS V14.01,2013-01-29 17:07:00,
2013-01-29 12:12:00,41.1,39.8,29.64,SSE,157,2.0,0.0,95,0.02,,OVC003,0.57,VWS V14.01,2013-01-29 17:12:00,
2013-01-29 12:17:00,41.1,39.8,29.64,SSE,157,2.0,0.0,95,0.02,,OVC003,0.57,VWS V14.01,2013-01-29 17:17:00,
2013-01-29 12:23:00,41.2,39.9,29.62,SSE,157,2.0,2.0,95,0.01,,OVC003,0.57,VWS V14.01,2013-01-29 17:23:00,
2013-01-29 12:28:00,41.4,40.1,29.62,SSE,157,2.0,0.0,95,0.01,,OVC003,0.57,VWS V14.01,2013-01-29 17:28:00,
2013-01-29 12:33:00,41.5,40.2,29.62,SSE,157,2.0,0.0,95,0.01,,OVC003,0.57,VWS V14.01,2013-01-29 17:33:00,
2013-01-29 12:38:00,41.7,40.4,29.61,SSE,157,2.0,0.0,95,0.00,,OVC003,0.57,VWS V14.01,2013-01-29 17:38:00,
2013-01-29 12:43:00,42.0,40.7,29.61,SSE,157,2.0,0.0,95,0.00,,OVC003,0.57,VWS V14.01,2013-01-29 17:43:00,
2013-01-29 12:48:00,42.2,40.9,29.61,SSE,157,2.0,0.0,95,0.00,,OVC003,0.57,VWS V14.01,2013-01-29 17:48:00,
2013-01-29 12:53:00,42.3,41.0,29.60,SSE,157,2.0,0.0,95,0.00,,OVC003,0.57,VWS V14.01,2013-01-29 17:53:00,
2013-01-29 12:58:00,42.4,41.1,29.60,SSE,157,2.0,0.0,95,0.00,,OVC003,0.57,VWS V14.01,2013-01-29 17:58:00,
2013-01-29 13:03:00,42.8,41.5,29.60,SSE,157,2.0,0.0,95,0.00,,OVC003,0.57,VWS V14.01,2013-01-29 18:03:00,
2013-01-29 13:08:00,43.2,41.9,29.60,SSE,157,2.0,0.0,95,0.00,,OVC003,0.57,VWS V14.01,2013-01-29 18:08:00,
2013-01-29 13:13:00,43.6,42.3,29.60,SSE,157,2.0,0.0,95,0.00,,OVC003,0.57,VWS V14.01,2013-01-29 18:13:00,
2013-01-29 13:18:00,43.9,42.6,29.60,SSE,157,2.0,0.0,95,0.00,,OVC003,0.57,VWS V14.01,2013-01-29 18:18:00,
2013-01-29 13:23:00,44.2,42.9,29.60,SSE,157,3.0,3.0,95,0.00,,OVC003,0.57,VWS V14.01,2013-01-29 18:23:00,
2013-01-29 13:28:00,44.7,43.4,29.60,SSE,157,2.0,0.0,95,0.00,,OVC003,0.57,VWS V14.01,2013-01-29 18:28:00,
2013-01-29 13:33:00,45.5,44.2,29.60,SSE,157,2.0,2.0,95,0.00,,OVC003,0.57,VWS V14.01,2013-01-29 18:33:00,
2013-01-29 13:38:00,46.3,45.0,29.58,SSE,157,2.0,2.0,95,0.00,,OVC003,0.57,VWS V14.01,2013-01-29 18:38:00,
2013-01-29 13:43:00,46.7,45.3,29.58,SSE,157,2.0,0.0,95,0.00,,OVC003,0.57,VWS V14.01,2013-01-29 18:43:00,
2013-01-29 13:48:00,47.0,45.9,29.58,SSE,157,2.0,2.0,96,0.00,,OVC003,0.57,VWS V14.01,2013-01-29 18:48:00,
2013-01-29 13:53:00,47.0,45.9,29.57,SSE,157,2.0,2.0,96,0.00,,OVC003,0.57,VWS V14.01,2013-01-29 18:53:00,
2013-01-29 13:58:00,47.6,46.5,29.57,SSE,157,2.0,2.0,96,0.00,,OVC003,0.57,VWS V14.01,2013-01-29 18:58:00,
2013-01-29 14:03:00,48.0,46.6,29.57,SSE,157,2.0,2.0,95,0.00,,OVC003,0.57,VWS V14.01,2013-01-29 19:03:00,
2013-01-29 14:08:00,48.7,47.6,29.56,South,186,2.0,4.0,96,0.00,,OVC003,0.57,VWS V14.01,2013-01-29 19:08:00,
2013-01-29 14:13:00,49.1,48.0,29.56,South,170,3.0,3.0,96,0.00,,OVC003,0.57,VWS V14.01,2013-01-29 19:13:00,
2013-01-29 14:18:00,49.8,48.7,29.56,SSE,155,3.0,3.0,96,0.00,,OVC003,0.57,VWS V14.01,2013-01-29 19:18:00,
2013-01-29 14:23:00,50.5,49.4,29.54,SW,218,3.0,5.0,96,0.00,,OVC003,0.57,VWS V14.01,2013-01-29 19:23:00,
2013-01-29 14:28:00,50.8,49.7,29.54,South,184,2.0,3.0,96,0.00,,OVC003,0.57,VWS V14.01,2013-01-29 19:28:00,
2013-01-29 14:33:00,51.3,50.2,29.54,South,182,2.0,9.0,96,0.00,,OVC003,0.57,VWS V14.01,2013-01-29 19:33:00,
2013-01-29 14:38:00,51.5,50.4,29.55,SSW,207,5.0,5.0,96,0.00,,OVC003,0.57,VWS V14.01,2013-01-29 19:38:00,
2013-01-29 14:43:00,52.1,51.0,29.55,SW,218,5.0,5.0,96,0.00,,OVC003,0.57,VWS V14.01,2013-01-29 19:43:00,
2013-01-29 14:48:00,52.4,51.3,29.55,SW,226,6.0,6.0,96,0.00,,OVC003,0.57,VWS V14.01,2013-01-29 19:48:00,
2013-01-29 14:53:00,52.8,51.7,29.55,West,263,2.0,4.0,96,0.00,,OVC003,0.57,VWS V14.01,2013-01-29 19:53:00,
2013-01-29 14:59:00,52.7,51.6,29.55,SSW,199,2.0,4.0,96,0.00,,OVC003,0.57,VWS V14.01,2013-01-29 19:59:00,
2013-01-29 15:04:00,52.7,51.6,29.55,SW,216,2.0,3.0,96,0.00,,OVC003,0.57,VWS V14.01,2013-01-29 20:04:00,
2013-01-29 15:10:00,52.6,51.5,29.55,WSW,245,2.0,2.0,96,0.00,,OVC003,0.57,VWS V14.01,2013-01-29 20:10:00,
2013-01-29 15:15:00,52.4,51.3,29.55,WSW,245,3.0,3.0,96,0.00,,OVC003,0.57,VWS V14.01,2013-01-29 20:15:00,
2013-01-29 15:20:00,52.5,51.4,29.56,WSW,237,2.0,0.0,96,0.00,,OVC003,0.57,VWS V14.01,2013-01-29 20:20:00,
2013-01-29 15:25:00,52.5,51.4,29.56,WSW,242,5.0,5.0,96,0.00,,OVC003,0.57,VWS V14.01,2013-01-29 20:25:00,
2013-01-29 15:30:00,52.8,51.7,29.56,SSW,209,12.0,12.0,96,0.00,,OVC003,0.57,VWS V14.01,2013-01-29 20:30:00,
2013-01-29 15:35:00,52.8,51.7,29.56,WSW,252,5.0,5.0,96,0.00,,OVC003,0.57,VWS V14.01,2013-01-29 20:35:00,
2013-01-29 15:40:00,52.7,51.6,29.56,West,274,3.0,3.0,96,0.00,,OVC003,0.57,VWS V14.01,2013-01-29 20:40:00,
2013-01-29 15:45:00,53.0,51.9,29.56,WSW,256,3.0,3.0,96,0.00,,OVC003,0.57,VWS V14.01,2013-01-29 20:45:00,
2013-01-29 15:50:00,53.0,51.9,29.55,SSW,203,4.0,4.0,96,0.00,,OVC003,0.57,VWS V14.01,2013-01-29 20:50:00,
2013-01-29 15:55:00,53.1,52.0,29.55,South,176,2.0,2.0,96,0.00,,OVC003,0.57,VWS V14.01,2013-01-29 20:55:00,
2013-01-29 16:00:00,53.2,52.1,29.55,South,188,3.0,3.0,96,0.00,,OVC003,0.57,VWS V14.01,2013-01-29 21:00:00,
2013-01-29 16:05:00,53.3,52.2,29.54,West,261,2.0,2.0,96,0.00,,OVC003,0.57,VWS V14.01,2013-01-29 21:05:00,
2013-01-29 16:10:00,53.4,52.3,29.54,SSW,194,3.0,3.0,96,0.00,,OVC003,0.57,VWS V14.01,2013-01-29 21:10:00,
2013-01-29 16:15:00,53.5,52.4,29.54,SSW,213,2.0,2.0,96,0.00,,OVC003,0.57,VWS V14.01,2013-01-29 21:15:00,
2013-01-29 16:21:00,53.2,52.1,29.54,SW,214,3.0,3.0,96,0.00,,OVC003,0.57,VWS V14.01,2013-01-29 21:21:00,
2013-01-29 16:26:00,53.1,52.0,29.54,SW,214,2.0,2.0,96,0.00,,OVC003,0.57,VWS V14.01,2013-01-29 21:26:00,
2013-01-29 16:31:00,53.0,51.9,29.54,SW,214,2.0,2.0,96,0.00,,OVC003,0.57,VWS V14.01,2013-01-29 21:31:00,
2013-01-29 16:36:00,53.0,51.9,29.54,SSW,207,4.0,4.0,96,0.00,,OVC003,0.57,VWS V14.01,2013-01-29 21:36:00,
2013-01-29 16:41:00,53.1,52.0,29.54,SSW,208,3.0,3.0,96,0.00,,OVC003,0.57,VWS V14.01,2013-01-29 21:41:00,
2013-01-29 16:46:00,53.1,52.0,29.54,SSW,207,2.0,2.0,96,0.00,,OVC003,0.57,VWS V14.01,2013-01-29 21:46:00,
2013-01-29 16:51:00,52.9,51.8,29.55,South,191,2.0,2.0,96,0.00,,OVC003,0.57,VWS V14.01,2013-01-29 21:51:00,
2013-01-29 16:56:00,52.9,51.8,29.55,SSW,210,3.0,3.0,96,0.00,,OVC003,0.57,VWS V14.01,2013-01-29 21:56:00,
2013-01-29 17:01:00,52.8,51.7,29.55,SSW,210,2.0,0.0,96,0.00,,OVC003,0.57,VWS V14.01,2013-01-29 22:01:00,
2013-01-29 17:06:00,52.4,51.3,29.54,SSW,210,2.0,2.0,96,0.00,,OVC003,0.57,VWS V14.01,2013-01-29 22:06:00,
2013-01-29 17:11:00,52.2,51.1,29.54,SSW,210,2.0,2.0,96,0.00,,OVC003,0.57,VWS V14.01,2013-01-29 22:11:00,
2013-01-29 17:16:00,52.2,51.1,29.54,ESE,120,2.0,2.0,96,0.00,,OVC003,0.57,VWS V14.01,2013-01-29 22:16:00,
2013-01-29 17:21:00,52.3,51.2,29.54,SSW,203,2.0,2.0,96,0.00,,OVC003,0.57,VWS V14.01,2013-01-29 22:21:00,
2013-01-29 17:26:00,52.3,51.2,29.54,SSE,147,4.0,4.0,96,0.00,,OVC003,0.57,VWS V14.01,2013-01-29 22:26:00,
2013-01-29 17:31:00,52.3,51.2,29.54,SSW,211,2.0,2.0,96,0.00,,OVC003,0.57,VWS V14.01,2013-01-29 22:31:00,
2013-01-29 17:36:00,52.2,51.1,29.53,WNW,286,2.0,2.0,96,0.00,,OVC003,0.57,VWS V14.01,2013-01-29 22:36:00,
2013-01-29 17:41:00,52.0,50.9,29.53,WNW,286,2.0,0.0,96,0.00,,OVC003,0.57,VWS V14.01,2013-01-29 22:41:00,
2013-01-29 17:46:00,52.2,51.1,29.53,South,182,4.0,4.0,96,0.00,,OVC003,0.57,VWS V14.01,2013-01-29 22:46:00,
2013-01-29 17:51:00,52.4,51.3,29.53,SE,141,2.0,2.0,96,0.00,,OVC003,0.57,VWS V14.01,2013-01-29 22:51:00,
2013-01-29 17:56:00,52.3,51.2,29.53,South,179,2.0,2.0,96,0.00,,OVC003,0.57,VWS V14.01,2013-01-29 22:56:00,
2013-01-29 18:01:00,52.0,50.9,29.53,SE,136,2.0,2.0,96,0.00,,OVC003,0.57,VWS V14.01,2013-01-29 23:01:00,
2013-01-29 18:06:00,52.2,51.1,29.53,South,182,3.0,3.0,96,0.00,,OVC003,0.57,VWS V14.01,2013-01-29 23:06:00,
2013-01-29 18:11:00,52.2,51.1,29.53,SSW,206,2.0,0.0,96,0.00,,OVC003,0.57,VWS V14.01,2013-01-29 23:11:00,
2013-01-29 18:16:00,52.2,51.1,29.53,SSW,206,4.0,4.0,96,0.00,,OVC003,0.57,VWS V14.01,2013-01-29 23:16:00,
2013-01-29 18:21:00,52.6,51.5,29.53,SSW,201,2.0,4.0,96,0.00,,OVC003,0.57,VWS V14.01,2013-01-29 23:21:00,
2013-01-29 18:26:00,52.7,51.6,29.53,SSW,209,2.0,2.0,96,0.00,,OVC003,0.57,VWS V14.01,2013-01-29 23:26:00,
2013-01-29 18:31:00,52.5,51.4,29.53,SSW,209,2.0,0.0,96,0.00,,OVC003,0.57,VWS V14.01,2013-01-29 23:31:00,
2013-01-29 18:36:00,52.3,51.2,29.53,SSW,209,2.0,2.0,96,0.00,,OVC003,0.57,VWS V14.01,2013-01-29 23:36:00,
2013-01-29 18:42:00,52.3,51.2,29.53,SSW,209,2.0,2.0,96,0.00,,OVC003,0.57,VWS V14.01,2013-01-29 23:42:00,
2013-01-29 18:47:00,52.0,50.9,29.53,SSW,209,2.0,0.0,96,0.01,,OVC003,0.58,VWS V14.01,2013-01-29 23:47:00,
2013-01-29 18:52:00,51.9,50.8,29.51,SSW,208,3.0,3.0,96,0.03,,OVC003,0.60,VWS V14.01,2013-01-29 23:52:00,
2013-01-29 18:57:00,51.8,50.7,29.51,SSW,208,2.0,2.0,96,0.06,,OVC003,0.63,VWS V14.01,2013-01-29 23:57:00,
2013-01-29 19:02:00,52.1,51.0,29.51,ESE,102,2.0,2.0,96,0.08,,OVC003,0.65,VWS V14.01,2013-01-30 00:02:00,
2013-01-29 19:07:00,52.0,50.9,29.50,SW,230,2.0,2.0,96,0.09,,OVC003,0.66,VWS V14.01,2013-01-30 00:07:00,
2013-01-29 19:12:00,52.0,50.9,29.50,South,186,3.0,3.0,96,0.09,,OVC003,0.66,VWS V14.01,2013-01-30 00:12:00,
2013-01-29 19:17:00,52.3,51.2,29.50,SW,236,2.0,2.0,96,0.09,,OVC003,0.66,VWS V14.01,2013-01-30 00:17:00,
2013-01-29 19:22:00,52.4,51.3,29.50,SSW,196,2.0,2.0,96,0.09,,OVC003,0.66,VWS V14.01,2013-01-30 00:22:00,
2013-01-29 19:27:00,52.6,51.5,29.50,SSE,155,2.0,2.0,96,0.09,,OVC003,0.66,VWS V14.01,2013-01-30 00:27:00,
2013-01-29 19:32:00,52.6,51.5,29.50,SSE,155,3.0,3.0,96,0.09,,OVC003,0.66,VWS V14.01,2013-01-30 00:32:00,
2013-01-29 19:37:00,52.6,51.5,29.49,SSW,202,3.0,3.0,96,0.09,,OVC003,0.66,VWS V14.01,2013-01-30 00:37:00,
2013-01-29 19:42:00,52.9,51.8,29.49,SSW,202,2.0,2.0,96,0.10,,OVC003,0.67,VWS V14.01,2013-01-30 00:42:00,
2013-01-29 19:47:00,52.8,51.7,29.49,West,266,5.0,5.0,96,0.10,,OVC003,0.68,VWS V14.01,2013-01-30 00:47:00,
2013-01-29 19:52:00,53.2,52.1,29.50,SSE,151,2.0,7.0,96,0.16,,OVC003,0.75,VWS V14.01,2013-01-30 00:52:00,
2013-01-29 19:57:00,53.6,52.5,29.50,SSW,195,2.0,6.0,96,0.17,,OVC003,0.79,VWS V14.01,2013-01-30 00:57:00,
2013-01-29 20:02:00,53.6,52.5,29.50,ESE,119,2.0,2.0,96,0.20,,OVC003,0.84,VWS V14.01,2013-01-30 01:02:00,
2013-01-29 20:07:00,53.6,52.5,29.48,South,189,3.0,3.0,96,0.19,,OVC003,0.85,VWS V14.01,2013-01-30 01:07:00,
2013-01-29 20:12:00,53.5,52.4,29.48,South,189,3.0,3.0,96,0.19,,OVC003,0.85,VWS V14.01,2013-01-30 01:12:00,
2013-01-29 20:17:00,53.5,52.4,29.48,South,171,2.0,2.0,96,0.19,,OVC003,0.85,VWS V14.01,2013-01-30 01:17:00,
2013-01-29 20:22:00,53.4,52.3,29.47,WSW,240,2.0,2.0,96,0.20,,OVC003,0.86,VWS V14.01,2013-01-30 01:22:00,
2013-01-29 20:27:00,53.1,52.0,29.47,SSE,162,2.0,2.0,96,0.20,,OVC003,0.86,VWS V14.01,2013-01-30 01:27:00,
2013-01-29 20:32:00,53.0,51.9,29.47,SSE,162,2.0,0.0,96,0.21,,OVC003,0.87,VWS V14.01,2013-01-30 01:32:00,
2013-01-29 20:37:00,52.8,51.7,29.46,SSE,162,2.0,2.0,96,0.21,,OVC003,0.87,VWS V14.01,2013-01-30 01:37:00,
2013-01-29 20:42:00,52.5,51.4,29.46,SSE,162,2.0,0.0,96,0.23,,OVC003,0.89,VWS V14.01,2013-01-30 01:42:00,
2013-01-29 20:47:00,52.6,51.5,29.46,SSE,162,2.0,0.0,96,0.23,,OVC003,0.90,VWS V14.01,2013-01-30 01:47:00,
2013-01-29 20:52:00,52.6,51.5,29.45,SE,144,2.0,3.0,96,0.19,,OVC003,0.90,VWS V14.01,2013-01-30 01:52:00,
2013-01-29 20:57:00,52.6,51.5,29.45,SE,145,2.0,2.0,96,0.14,,OVC003,0.90,VWS V14.01,2013-01-30 01:57:00,
2013-01-29 21:02:00,52.5,51.4,29.45,SE,132,2.0,3.0,96,0.07,,OVC003,0.90,VWS V14.01,2013-01-30 02:02:00,
2013-01-29 21:07:00,52.3,51.2,29.43,SE,132,2.0,2.0,96,0.06,,OVC003,0.90,VWS V14.01,2013-01-30 02:07:00,
2013-01-29 21:12:00,52.1,51.0,29.43,SSE,148,4.0,4.0,96,0.05,,OVC003,0.90,VWS V14.01,2013-01-30 02:12:00,
2013-01-29 21:17:00,52.3,51.2,29.43,SSE,153,2.0,3.0,96,0.05,,OVC003,0.90,VWS V14.01,2013-01-30 02:17:00,
2013-01-29 21:22:00,52.4,51.3,29.42,SE,143,2.0,2.0,96,0.04,,OVC003,0.90,VWS V14.01,2013-01-30 02:22:00,
2013-01-29 21:27:00,52.3,51.2,29.42,SE,143,2.0,3.0,96,0.04,,OVC003,0.90,VWS V14.01,2013-01-30 02:27:00,
2013-01-29 21:32:00,52.2,51.1,29.42,SE,143,2.0,2.0,96,0.04,,OVC003,0.90,VWS V14.01,2013-01-30 02:32:00,
2013-01-29 21:37:00,52.1,51.0,29.41,SE,137,2.0,3.0,96,0.03,,OVC003,0.90,VWS V14.01,2013-01-30 02:37:00,
2013-01-29 21:42:00,52.5,51.4,29.41,South,190,2.0,2.0,96,0.02,,OVC003,0.90,VWS V14.01,2013-01-30 02:42:00,
2013-01-29 21:47:00,52.3,51.2,29.41,South,191,2.0,2.0,96,0.00,,OVC003,0.90,VWS V14.01,2013-01-30 02:47:00,
2013-01-29 21:53:00,52.4,51.3,29.40,SSE,153,4.0,4.0,96,0.00,,OVC003,0.90,VWS V14.01,2013-01-30 02:53:00,
2013-01-29 21:58:00,52.7,51.6,29.40,SSE,153,2.0,3.0,96,0.00,,OVC003,0.90,VWS V14.01,2013-01-30 02:58:00,
2013-01-29 22:03:00,52.6,51.5,29.40,SE,133,3.0,3.0,96,0.00,,OVC003,0.90,VWS V14.01,2013-01-30 03:03:00,
2013-01-29 22:08:00,52.8,51.7,29.38,SSE,163,3.0,3.0,96,0.01,,OVC003,0.91,VWS V14.01,2013-01-30 03:08:00,
2013-01-29 22:13:00,52.8,51.7,29.38,SSE,163,2.0,2.0,96,0.01,,OVC003,0.91,VWS V14.01,2013-01-30 03:13:00,
2013-01-29 22:18:00,52.8,51.7,29.38,SW,219,2.0,4.0,96,0.01,,OVC003,0.91,VWS V14.01,2013-01-30 03:18:00,
2013-01-29 22:23:00,52.8,51.7,29.37,East,90,2.0,2.0,96,0.01,,OVC003,0.91,VWS V14.01,2013-01-30 03:23:00,
2013-01-29 22:28:00,52.9,51.8,29.37,WSW,250,3.0,5.0,96,0.02,,OVC003,0.92,VWS V14.01,2013-01-30 03:28:00,
2013-01-29 22:33:00,53.0,51.9,29.37,SE,125,2.0,3.0,96,0.17,,OVC003,1.07,VWS V14.01,2013-01-30 03:33:00,
2013-01-29 22:38:00,53.2,52.1,29.37,SSE,149,3.0,4.0,96,0.19,,OVC003,1.09,VWS V14.01,2013-01-30 03:38:00,
2013-01-29 22:43:00,53.3,52.2,29.37,SSE,151,2.0,2.0,96,0.20,,OVC003,1.10,VWS V14.01,2013-01-30 03:43:00,
2013-01-29 22:48:00,53.2,52.1,29.37,SSE,151,2.0,2.0,96,0.21,,OVC003,1.11,VWS V14.01,2013-01-30 03:48:00,
2013-01-29 22:53:00,53.1,52.0,29.36,WSW,241,2.0,2.0,96,0.22,,OVC003,1.12,VWS V14.01,2013-01-30 03:53:00,
2013-01-29 22:58:00,53.0,51.9,29.36,SW,216,2.0,2.0,96,0.26,,OVC003,1.16,VWS V14.01,2013-01-30 03:58:00,
2013-01-29 23:03:00,53.2,52.1,29.36,SW,216,2.0,3.0,96,0.30,,OVC003,1.20,VWS V14.01,2013-01-30 04:03:00,
2013-01-29 23:08:00,53.3,52.2,29.36,SW,227,4.0,4.0,96,0.30,,OVC003,1.21,VWS V14.01,2013-01-30 04:08:00,
2013-01-29 23:13:00,53.3,52.2,29.36,SW,217,2.0,2.0,96,0.30,,OVC003,1.21,VWS V14.01,2013-01-30 04:13:00,
2013-01-29 23:18:00,53.4,52.3,29.36,South,176,3.0,3.0,96,0.31,,OVC003,1.22,VWS V14.01,2013-01-30 04:18:00,
2013-01-29 23:23:00,53.4,52.3,29.34,SSW,197,2.0,2.0,96,0.31,,OVC003,1.22,VWS V14.01,2013-01-30 04:23:00,
2013-01-29 23:28:00,53.3,52.2,29.34,SSW,197,2.0,2.0,96,0.31,,OVC003,1.22,VWS V14.01,2013-01-30 04:28:00,
2013-01-29 23:33:00,53.2,52.1,29.34,South,178,2.0,4.0,96,0.25,,OVC003,1.22,VWS V14.01,2013-01-30 04:33:00,
2013-01-29 23:38:00,53.2,52.1,29.33,WSW,240,4.0,4.0,96,0.14,,OVC003,1.22,VWS V14.01,2013-01-30 04:38:00,
2013-01-29 23:43:00,53.2,52.1,29.33,SW,221,2.0,2.0,96,0.12,,OVC003,1.22,VWS V14.01,2013-01-30 04:43:00,
2013-01-29 23:48:00,53.1,52.0,29.33,SSW,213,2.0,2.0,96,0.12,,OVC003,1.22,VWS V14.01,2013-01-30 04:48:00,
2013-01-29 23:53:00,53.1,52.0,29.32,SSW,213,2.0,2.0,96,0.11,,OVC003,1.22,VWS V14.01,2013-01-30 04:53:00,
2013-01-29 23:58:00,53.0,51.9,29.32,SSE,148,2.0,3.0,96,0.09,,OVC003,1.22,VWS V14.01,2013-01-30 04:58:00,